Walla Walla, WA

4:57 AM PDT on July 28, 2016 (GMT -0700)
Walla Walla Regional

Weather History for KALW - November, 2012

Change the Weather History Date:

Friday, November 2, 2012

  Actual Average Record
Temperature  
Mean Temperature 56 °F -  
Max Temperature 64 °F 54 °F 70 °F (1965)
Min Temperature 48 °F 39 °F 19 °F (2002)
Degree Days  
Heating Degree Days 9    
Growing Degree Days 6 (Base 50)    
Moisture  
Dew Point 46 °F    
Average Humidity 77    
Maximum Humidity 100    
Minimum Humidity 47    
Precipitation  
Precipitation 0.00 in - - ()
Sea Level Pressure  
Sea Level Pressure 30.05 in    
Wind  
Wind Speed 6 mph (SSE)    
Max Wind Speed 15 mph    
Max Gust Speed -    
Visibility 8 miles    
Events      
Averages and records for this station are not official NWS values.
T = Trace of Precipitation, MM = Missing Value Source: NWS Daily Summary

Daily Weather History Graph

Daily Weather History Graph

Search for Another Location

Airport or City:

Trip Planner

Search our weather history database for the weather conditions in past years. The results will help you decide how hot, cold, wet, or windy it might be!

Date:

Astronomy

Nov. 02, 2012 Rise Set
Actual Time 7:36 AM PDT 5:36 PM PDT
Civil Twilight 7:04 AM PDT 6:07 PM PDT
Nautical Twilight 6:29 AM PDT 6:43 PM PDT
Astronomical Twilight 5:54 AM PDT 7:18 PM PDT
Moon 8:21 PM PDT (11/2) 11:07 AM PDT (11/2)
Length of Visible Light 11h 03m
Length of Day
10h 00m
Waning Gibbous, 86% of the Moon is Illuminated
Nov 2
Waning Gibbous
Nov 6
Last Quarter
Nov 13
New
Nov 20
First Quarter
Nov 28
Full

Hourly Weather History & Observations

Time (PDT) Temp. Dew Point Humidity Pressure Visibility Wind Dir Wind Speed Gust Speed Precip Events Conditions
12:53 AM 54.0 °F 46.9 °F 77% 30.08 in 10.0 mi SSE 4.6 mph - N/A   Overcast
1:53 AM 54.0 °F 46.9 °F 77% 30.08 in 10.0 mi South 3.5 mph - N/A   Overcast
2:53 AM 52.0 °F 46.0 °F 80% 30.07 in 10.0 mi SSE 6.9 mph - N/A   Partly Cloudy
3:53 AM 51.1 °F 44.1 °F 77% 30.07 in 10.0 mi ESE 4.6 mph - N/A   Clear
4:53 AM 48.0 °F 43.0 °F 83% 30.08 in 10.0 mi ESE 6.9 mph - N/A   Clear
5:53 AM 48.9 °F 43.0 °F 80% 30.09 in 10.0 mi Calm Calm - N/A   Clear
6:53 AM 48.0 °F 43.0 °F 83% 30.10 in 10.0 mi ESE 4.6 mph - N/A   Clear
7:53 AM 48.9 °F 43.0 °F 80% 30.10 in 10.0 mi ESE 5.8 mph - N/A   Clear
8:53 AM 53.1 °F 44.1 °F 71% 30.11 in 10.0 mi ESE 6.9 mph - N/A   Clear
9:53 AM 55.9 °F 46.0 °F 69% 30.09 in 10.0 mi East 5.8 mph - N/A   Clear
10:53 AM 61.0 °F 43.0 °F 52% 30.08 in 10.0 mi North 3.5 mph - N/A   Clear
11:53 AM 62.1 °F 45.0 °F 53% 30.08 in 10.0 mi NNW 4.6 mph - N/A   Clear
12:53 PM 62.1 °F 44.1 °F 52% 30.06 in 10.0 mi NNE 3.5 mph - N/A   Clear
1:53 PM 63.0 °F 45.0 °F 52% 30.05 in 8.0 mi NW 3.5 mph - N/A   Clear
2:53 PM 64.0 °F 44.1 °F 48% 30.03 in 10.0 mi NNW 5.8 mph - N/A   Clear
3:53 PM 64.9 °F 44.1 °F 47% 30.02 in 10.0 mi NNW 4.6 mph - N/A   Clear
4:53 PM 60.1 °F 48.0 °F 64% 30.02 in 10.0 mi North 4.6 mph - N/A   Clear
5:26 PM 59.0 °F 48.2 °F 67% 30.01 in 10.0 mi Calm Calm - N/A   Clear
5:51 PM 55.4 °F 48.2 °F 77% 30.02 in 10.0 mi WSW 6.9 mph - N/A   Clear
5:53 PM 55.9 °F 48.0 °F 75% 30.03 in 10.0 mi WSW 6.9 mph - N/A   Clear
6:53 PM 54.0 °F 48.9 °F 83% 30.04 in 10.0 mi SSE 8.1 mph - N/A   Clear
7:53 PM 51.1 °F 48.9 °F 92% 30.04 in 6.0 mi South 9.2 mph - N/A   Clear
8:29 PM 50.0 °F 48.2 °F 94% 30.03 in 4.0 mi South 10.4 mph - N/A   Partly Cloudy
8:49 PM 50.0 °F 48.2 °F 94% 30.02 in 4.0 mi South 9.2 mph - N/A   Mostly Cloudy
8:53 PM 50.0 °F 48.0 °F 93% 30.03 in 4.0 mi South 10.4 mph - N/A   Mostly Cloudy
9:00 PM 50.0 °F 48.2 °F 94% 30.03 in 4.0 mi South 11.5 mph - N/A   Scattered Clouds
9:38 PM 48.2 °F 48.2 °F 100% 30.04 in 4.0 mi South 8.1 mph - N/A   Overcast
9:53 PM 50.0 °F 46.9 °F 89% 30.04 in 5.0 mi SSE 12.7 mph - N/A   Overcast
10:00 PM 50.0 °F 46.4 °F 87% 30.02 in 5.0 mi SSE 15.0 mph - N/A   Overcast
10:53 PM 50.0 °F 46.9 °F 89% 30.03 in 5.0 mi SE 4.6 mph - N/A   Overcast
11:53 PM 48.9 °F 46.9 °F 93% 30.02 in 5.0 mi Calm Calm - N/A   Overcast